Syracuse, NY

9:10 PM EST on December 06, 2019 (GMT -0500)
Syracuse Hancock International

Weather History for KSYR - November, 2019

Change the Weather History Date:

Wednesday, November 20, 2019

  Actual Average Record
Temperature  
Mean Temperature 36 °F 39 °F  
Max Temperature 43 °F 47 °F 75 °F (1991)
Min Temperature 29 °F 32 °F 13 °F (1986)
Degree Days  
Heating Degree Days 29 26  
Month to date heating degree days 596 452  
Since 1 July heating degree days 1031 1069  
Cooling Degree Days 0 0  
Month to date cooling degree days 0 0  
Year to date cooling degree days 622 569  
Moisture  
Dew Point 30 °F    
Average Humidity 77    
Maximum Humidity 92    
Minimum Humidity 62    
Precipitation  
Precipitation 0.00 in 0.12 in 0.92 in (1974)
Month to date precipitation 0.86 2.35  
Year to date precipitation 41.87 34.07  
Snow  
Snow 0.00 in 0.40 in 8.10 in (1993)
Month to date snowfall 6.6 4.3  
Since 1 July snowfall 6.6 4.7  
Since 1 September snowfall 6.6 4.7  
Snow Depth 0.00 in    
Sea Level Pressure  
Sea Level Pressure 30.08 in    
Wind  
Wind Speed 2 mph ()    
Max Wind Speed 14 mph    
Max Gust Speed 18 mph    
Visibility 9.8 miles    
Events      
T = Trace of Precipitation, MM = Missing Value Source: Averaged Metar Reports

Daily Weather History Graph

Daily Weather History Graph

Search for Another Location

Airport or City:

Astronomy

Nov. 20, 2019 Rise Set
Actual Time 7:03 AM EST 4:36 PM EST
Civil Twilight 6:32 AM EST 5:07 PM EST
Nautical Twilight 5:57 AM EST 5:42 PM EST
Astronomical Twilight 5:23 AM EST 6:16 PM EST
Moon No Moon Rise 1:44 PM EST (11/20)
Length of Visible Light 10h 35m
Length of Day
9h 33m
Last Quarter, 41% of the Moon is Illuminated
Nov 20
Last Quarter
Nov 26
New
Dec 4
First Quarter
Dec 12
Full
Dec 18
Last Quarter

Hourly Weather History & Observations

Time (EST) Temp. Windchill Dew Point Humidity Pressure Visibility Wind Dir Wind Speed Gust Speed Precip Events Conditions
1:54 AM 30.0 °F - 26.1 °F 85% 29.94 in 10.0 mi Calm Calm - N/A   Overcast
2:54 AM 30.9 °F - 26.1 °F 82% 29.95 in 10.0 mi Calm Calm - N/A   Overcast
3:54 AM 30.9 °F - 27.0 °F 85% 29.97 in 10.0 mi Calm Calm - N/A   Overcast
4:32 AM 32.0 °F - 27.0 °F 82% 29.97 in 10.0 mi Calm Calm - N/A   Overcast
4:54 AM 32.0 °F - 27.0 °F 82% 29.98 in 10.0 mi Calm Calm - N/A   Overcast
5:32 AM 33.1 °F 30.0 °F 28.0 °F 82% 29.98 in 10.0 mi WSW 3.5 mph - N/A   Overcast
5:54 AM 33.1 °F - 28.0 °F 82% 29.99 in 10.0 mi Calm Calm - N/A   Overcast
6:16 AM 33.1 °F - 28.0 °F 82% 29.99 in 10.0 mi Calm Calm - N/A   Overcast
6:54 AM 34.0 °F - 28.9 °F 82% 30.01 in 10.0 mi Calm Calm - N/A   Overcast
7:54 AM 33.1 °F - 28.9 °F 85% 30.03 in 10.0 mi Calm Calm - N/A   Overcast
8:54 AM 36.0 °F - 30.9 °F 82% 30.04 in 10.0 mi Calm Calm - N/A   Overcast
10:01 AM 37.9 °F 35.5 °F 30.9 °F 76% 30.05 in 10.0 mi NW 3.5 mph - N/A   Overcast
10:54 AM 39.0 °F 35.7 °F 28.9 °F 67% 30.06 in 10.0 mi NNW 4.6 mph - N/A   Overcast
11:54 AM 39.9 °F 35.8 °F 30.0 °F 68% 30.06 in 10.0 mi NW 5.8 mph - N/A   Overcast
12:54 PM 41.0 °F 37.1 °F 30.9 °F 67% 30.06 in 10.0 mi WNW 5.8 mph - N/A   Overcast
1:54 PM 42.1 °F 36.1 °F 30.0 °F 62% 30.07 in 10.0 mi WNW 10.4 mph - N/A   Overcast
2:17 PM 42.1 °F 37.1 °F 30.9 °F 65% 30.07 in 10.0 mi NW 8.1 mph - N/A   Overcast
2:54 PM 42.1 °F 36.1 °F 30.0 °F 62% 30.08 in 10.0 mi NW 10.4 mph - N/A   Overcast
3:17 PM 42.1 °F 35.7 °F 30.0 °F 62% 30.08 in 10.0 mi NW 11.5 mph - N/A   Overcast
3:54 PM 41.0 °F 35.8 °F 30.9 °F 67% 30.10 in 10.0 mi NW 8.1 mph - N/A   Overcast
4:38 PM 39.0 °F 34.0 °F 30.9 °F 73% 30.11 in 10.0 mi NW 6.9 mph - N/A   Mostly Cloudy
4:54 PM 37.9 °F 33.5 °F 30.0 °F 73% 30.12 in 10.0 mi NW 5.8 mph - N/A   Mostly Cloudy
5:01 PM 37.9 °F 33.5 °F 30.9 °F 76% 30.12 in 10.0 mi NW 5.8 mph - N/A   Mostly Cloudy
5:28 PM 37.0 °F 33.3 °F 30.9 °F 79% 30.13 in 10.0 mi NW 4.6 mph - N/A   Mostly Cloudy
5:46 PM 37.9 °F 35.5 °F 30.9 °F 76% 30.14 in 10.0 mi North 3.5 mph - N/A   Mostly Cloudy
5:54 PM 37.0 °F - 30.9 °F 79% 30.14 in 10.0 mi Calm Calm - N/A   Overcast
6:54 PM 37.0 °F - 30.9 °F 79% 30.16 in 10.0 mi Calm Calm - N/A   Overcast
7:45 PM 36.0 °F - 30.0 °F 79% 30.16 in 10.0 mi Calm Calm - N/A   Overcast
7:54 PM 36.0 °F - 30.0 °F 79% 30.17 in 10.0 mi Calm Calm - N/A   Overcast
8:54 PM 33.1 °F - 28.0 °F 82% 30.18 in 10.0 mi Calm Calm - N/A   Mostly Cloudy
9:26 PM 33.1 °F - 28.9 °F 85% 30.18 in 10.0 mi Calm Calm - N/A   Mostly Cloudy
9:54 PM 33.1 °F - 28.9 °F 85% 30.19 in 10.0 mi Calm Calm - N/A   Overcast
10:54 PM 36.0 °F 30.3 °F 33.1 °F 89% 30.19 in 7.0 mi West 6.9 mph - N/A   Partly Cloudy
11:54 PM 34.0 °F 28.0 °F 32.0 °F 92% 30.20 in 5.0 mi West 6.9 mph - N/A   Partly Cloudy